STARLINK-35678 (66971 NORAD) Tracking and Keplerian Element Data

This shows tracking and keplerian element data for the satellite.

Feedback or suggestion? Click here.




ElementValue
Catalog66971
NameSTARLINK-35678
Epoch Orbit303
Epoch Day354.25003472
Epoch Year2025
RAAN121.1285
Inclination43.0017
Eccentricity0.0001742
Argument of Perigee271.6117
Mean Anonmoly107.8437
Mean Motion15.81229851
Decay Rate-0.01366926
L11 66971U 25288N 25354.25003472 -.01366926 00000+0 -75434-2 0 9995
L22 66971 43.0017 121.1285 0001742 271.6117 107.8437 15.81229851 3033



Live tracking and technical data element details for STARLINK-35678 (NORAD 66971). STARLINK-35678 can be tracked NOW for your location showing map with azimuth and elevation plus other details from your city location.







IsCatalogInMostPopularTable: catalog: 66971, numindb: 20
Update: records affected: 1



GetName: 66971 STARLINK-35678

Hit Count: updated at: Sat, 11 Apr 2026 19:58:38 GMT